Santiago de Cuba, Cuba

3:18 AM CST on December 14, 2017 (GMT -0500)
Antonio Maceo International

Weather History for MUCU - October, 2017

Change the Weather History Date:

Friday, October 13, 2017

  Actual Average Record
Temperature  
Mean Temperature 81 °F -  
Max Temperature 88 °F 84 °F 89 °F (2005)
Min Temperature 74 °F 72 °F 71 °F (1999)
Cooling Degree Days 16    
Growing Degree Days 31 (Base 50)    
Moisture  
Dew Point 75 °F    
Average Humidity 87    
Maximum Humidity 100    
Minimum Humidity 56    
Precipitation  
Precipitation 0.00 in - - ()
Sea Level Pressure  
Sea Level Pressure 29.91 in    
Wind  
Wind Speed 4 mph ()    
Max Wind Speed 7 mph    
Max Gust Speed -    
Visibility 5.5 miles    
Events Rain , Thunderstorm    
Averages and records for this station are not official NWS values.
T = Trace of Precipitation, MM = Missing Value Source: Averaged Metar Reports

Daily Weather History Graph

Daily Weather History Graph

Search for Another Location

Airport or City:

Trip Planner

Search our weather history database for the weather conditions in past years. The results will help you decide how hot, cold, wet, or windy it might be!

Date:

Astronomy

Oct. 13, 2017 Rise Set
Actual Time 6:57 AM CDT 6:41 PM CDT
Civil Twilight 6:35 AM CDT 7:03 PM CDT
Nautical Twilight 6:09 AM CDT 7:28 PM CDT
Astronomical Twilight 5:44 AM CDT 7:54 PM CDT
Moon 1:11 AM CDT (10/13) 2:33 PM CDT (10/13)
Length of Visible Light 12h 27m
Length of Day
11h 43m
Last Quarter, 37% of the Moon is Illuminated
Oct 13
Last Quarter
Oct 19
New
Oct 27
First Quarter
Nov 4
Full
Nov 10
Last Quarter

Hourly Weather History & Observations

Time (CDT) Temp. Heat Index Dew Point Humidity Pressure Visibility Wind Dir Wind Speed Gust Speed Precip Events Conditions
12:50 AM 75.2 °F - 75.2 °F 100% 29.89 in 5.6 mi NNE 4.6 mph - N/A   Partly Cloudy
1:51 AM 75.2 °F - 75.2 °F 100% 29.89 in 5.6 mi NE 4.6 mph - N/A   Partly Cloudy
2:00 AM 75 °F - 74 °F 98% 29.89 in 6 mi NE 4.5 mph - -   Scattered Clouds
2:50 AM 75.2 °F - 75.2 °F 100% 29.86 in 5.6 mi North 5.8 mph - N/A   Partly Cloudy
3:50 AM 75.2 °F - 75.2 °F 100% 29.89 in 5.6 mi North 4.6 mph - N/A   Partly Cloudy
4:53 AM 75.2 °F - 73.4 °F 94% 29.86 in 5.6 mi NNE 4.6 mph - N/A   Scattered Clouds
5:00 AM 75 °F - 74 °F 95% 29.88 in 6 mi NNE 4.5 mph - -   Partly Cloudy
5:51 AM 75.2 °F - 73.4 °F 94% 29.89 in 5.6 mi North 3.5 mph - N/A   Scattered Clouds
6:51 AM 75.2 °F - 75.2 °F 100% 29.89 in 5.6 mi North 4.6 mph - N/A   Scattered Clouds
7:53 AM 77.0 °F - 75.2 °F 94% - 5.6 mi North 4.6 mph - N/A Thunderstorm Mostly Cloudy
8:00 AM 77 °F - 75 °F 91% 29.92 in 6 mi North 4.5 mph - - Thunderstorm Thunderstorm
8:52 AM 77.0 °F - 75.2 °F 94% 29.95 in 5.6 mi North 4.6 mph - N/A   Mostly Cloudy
9:52 AM 77.0 °F - 75.2 °F 94% 29.95 in 5.6 mi North 4.6 mph - N/A   Mostly Cloudy
10:52 AM 77.0 °F - 75.2 °F 94% 29.98 in 4.3 mi North 3.5 mph - N/A Rain , Thunderstorm Light Thunderstorms and Rain
11:00 AM 77 °F - 76 °F 94% 29.99 in 6 mi North 4.5 mph - - Rain , Thunderstorm Thunderstorms and Rain
11:52 AM 77.0 °F - 77.0 °F 100% 29.95 in 5.0 mi NNE 4.6 mph - N/A Rain Light Rain
12:54 PM 80.6 °F 89.3 °F 80.6 °F 100% 29.92 in 5.6 mi North 5.8 mph - N/A   Scattered Clouds
1:52 PM 87.8 °F 97.6 °F 75.2 °F 66% 29.92 in 5.6 mi Variable 2.3 mph - N/A   Scattered Clouds
2:00 PM 88 °F - 74 °F 56% 29.92 in 6 mi East 2.2 mph - -   Haze
2:53 PM 86.0 °F 93.4 °F 73.4 °F 66% 29.89 in 5.6 mi SE 5.8 mph - N/A   Scattered Clouds
3:53 PM 86.0 °F 93.4 °F 73.4 °F 66% 29.89 in 5.6 mi South 4.6 mph - N/A   Scattered Clouds
4:52 PM 84.2 °F 90.9 °F 73.4 °F 70% 29.89 in 5.6 mi South 5.8 mph - N/A   Scattered Clouds
5:00 PM 85 °F - 73 °F 59% 29.90 in 6 mi South 4.5 mph - -   Haze
5:52 PM 84.2 °F 90.9 °F 73.4 °F 70% 29.89 in 5.6 mi Variable 2.3 mph - N/A   Scattered Clouds
6:53 PM 82.4 °F 88.2 °F 73.4 °F 74% 29.89 in 5.6 mi WNW 2.3 mph - N/A   Scattered Clouds
7:52 PM 80.6 °F 86.2 °F 75.2 °F 84% 29.89 in 5.0 mi NNW 4.6 mph - N/A   Scattered Clouds
8:00 PM 81 °F - 74 °F 75% 29.91 in 5 mi NNW 4.5 mph - -   Haze
8:51 PM 78.8 °F - 75.2 °F 89% 29.92 in 5.0 mi North 3.5 mph - N/A   Scattered Clouds
9:51 PM 77.0 °F - 77.0 °F 100% 29.92 in 5.0 mi North 5.8 mph - N/A   Partly Cloudy
10:50 PM 78.8 °F - 77.0 °F 94% 29.95 in 5.0 mi North 6.9 mph - N/A   Partly Cloudy
11:00 PM 78 °F - 76 °F 92% 29.95 in 5 mi North 6.7 mph - -   Haze
11:50 PM 77.0 °F - 75.2 °F 94% 29.95 in 5.0 mi North 5.8 mph - N/A   Partly Cloudy